GW3677 Weather Reports


time (UTC)temp
C
wind
direction
speed
KPH
gust
KPH
rain 1hr
cm
rain 24hr
cm
rain mn
cm
humidity
%
barometer
mb
20260504081921 15 53 0.0 3.2 0.00 0.00 0.00 90 1016.5
20260504081418 15 35 3.2 3.2 0.00 0.00 0.00 90 1016.6
20260504080914 15 39 0.0 1.6 0.00 0.00 0.00 90 1016.8
20260504080411 14 46 1.6 3.2 0.00 0.00 0.00 91 1016.7
20260504070338 15 130 0.0 1.6 0.00 0.00 0.00 88 1016.9
20260504050726 16 34 0.0 0.0 0.00 0.00 0.00 87 1017.7
20260504050223 16 34 0.0 1.6 0.00 0.00 0.00 86 1017.8
20260504045721 16 34 0.0 0.0 0.00 0.00 0.00 85 1018.0
20260504045216 16 34 0.0 1.6 0.00 0.00 0.00 84 1017.9
20260504044714 16 34 0.0 0.0 0.00 0.00 0.00 83 1018.0
20260504044211 16 34 0.0 0.0 0.00 0.00 0.00 82 1017.8
20260504043708 17 34 0.0 0.0 0.00 0.00 0.00 82 1018.0
20260504043204 17 34 0.0 0.0 0.00 0.00 0.00 81 1017.9
20260504042702 17 34 0.0 0.0 0.00 0.00 0.00 80 1017.9
20260504042158 17 34 0.0 1.6 0.00 0.00 0.00 79 1018.1
20260504041654 17 34 0.0 1.6 0.00 0.00 0.00 79 1018.1
20260504041150 17 34 1.6 3.2 0.00 0.00 0.00 79 1018.0
20260504040648 16 52 0.0 0.0 0.00 0.00 0.00 82 1018.2
20260504040145 17 52 0.0 0.0 0.00 0.00 0.00 81 1018.1
20260504035641 17 52 0.0 0.0 0.00 0.00 0.00 80 1018.1
20260504035138 16 52 0.0 1.6 0.00 0.00 0.00 80 1018.1
20260504034636 16 52 0.0 0.0 0.00 0.00 0.00 80 1018.0
20260504034132 17 49 1.6 1.6 0.00 0.00 0.00 79 1018.2
20260504033630 17 57 0.0 0.0 0.00 0.00 0.00 77 1018.1
20260504033127 17 51 0.0 0.0 0.00 0.00 0.00 74 1017.9
20260504032624 17 51 0.0 1.6 0.00 0.00 0.00 74 1017.8
20260504032121 17 57 0.0 1.6 0.00 0.00 0.00 74 1017.7
20260504031618 17 57 0.0 1.6 0.00 0.00 0.00 76 1017.7
20260504031114 17 57 0.0 1.6 0.00 0.00 0.00 76 1017.6
20260504030611 18 57 0.0 1.6 0.00 0.00 0.00 73 1017.6
20260504030108 18 57 0.0 1.6 0.00 0.00 0.00 72 1017.6
20260504025605 18 52 0.0 3.2 0.00 0.00 0.00 73 1017.7
20260504025102 17 51 1.6 3.2 0.00 0.00 0.00 74 1017.7
20260504024559 18 52 0.0 1.6 0.00 0.00 0.00 73 1017.4
20260504024055 17 52 1.6 1.6 0.00 0.00 0.00 73 1017.5
20260504023552 17 51 0.0 1.6 0.00 0.00 0.00 77 1017.5
20260504023048 17 51 1.6 1.6 0.00 0.00 0.00 76 1017.5
20260504022544 18 51 0.0 0.0 0.00 0.00 0.00 73 1017.4
20260504022040 18 51 0.0 0.0 0.00 0.00 0.00 72 1017.3
20260504021537 18 51 0.0 1.6 0.00 0.00 0.00 71 1017.3
20260504021029 18 51 0.0 1.6 0.00 0.00 0.00 71 1017.1
20260504020526 19 57 1.6 1.6 0.00 0.00 0.00 70 1017.2
20260504020022 19 52 0.0 1.6 0.00 0.00 0.00 68 1017.2
20260504015519 20 52 1.6 1.6 0.00 0.00 0.00 67 1017.1
20260504015015 20 52 1.6 1.6 0.00 0.00 0.00 66 1016.8
20260504014511 20 54 0.0 1.6 0.00 0.00 0.00 65 1017.1
20260504014009 20 46 1.6 3.2 0.00 0.00 0.00 64 1016.9
20260504013506 20 54 0.0 1.6 0.00 0.00 0.00 64 1016.8
20260504013003 20 64 0.0 1.6 0.00 0.00 0.00 64 1016.7
20260504012501 20 59 3.2 4.8 0.00 0.00 0.00 63 1016.7
20260504011958 21 63 4.8 4.8 0.00 0.00 0.00 62 1016.6
20260504011454 21 85 3.2 4.8 0.00 0.00 0.00 62 1016.4
20260504010950 21 98 4.8 8.0 0.00 0.00 0.00 61 1016.2
20260504010447 21 107 3.2 4.8 0.00 0.00 0.00 61 1016.0
20260504005942 21 82 4.8 4.8 0.00 0.00 0.00 60 1016.0
20260504005439 21 59 6.4 8.0 0.00 0.00 0.00 59 1016.2
20260504004937 21 60 4.8 4.8 0.00 0.00 0.00 59 1016.1
20260504004434 22 64 4.8 9.7 0.00 0.00 0.00 58 1016.0
20260504003931 22 73 1.6 8.0 0.00 0.00 0.00 57 1015.9
20260504003427 22 69 0.0 4.8 0.00 0.00 0.00 57 1016.0
20260504002924 22 63 4.8 8.0 0.00 0.00 0.00 56 1015.7
20260504002421 22 63 1.6 8.0 0.00 0.00 0.00 56 1015.6
20260504001919 22 72 8.0 9.7 0.00 0.00 0.00 55 1015.6
20260504001416 22 73 4.8 4.8 0.00 0.00 0.00 55 1015.6
20260504000912 23 64 3.2 4.8 0.00 0.00 0.00 53 1015.5
20260504000410 23 67 3.2 4.8 0.00 0.00 0.00 52 1015.6
20260503235907 23 68 6.4 9.7 0.00 0.00 0.00 50 1015.4
20260503235405 23 21 1.6 1.6 0.00 0.00 0.00 49 1015.1
20260503234902 23 21 0.0 1.6 0.00 0.00 0.00 49 1015.3
20260503234400 24 21 0.0 0.0 0.00 0.00 0.00 48 1015.4
20260503233857 25 21 0.0 0.0 0.00 0.00 0.00 44 1015.3
20260503233354 25 21 0.0 1.6 0.00 0.00 0.00 43 1015.3
20260503232850 25 21 0.0 1.6 0.00 0.00 0.00 43 1015.3
20260503232347 25 48 0.0 3.2 0.00 0.00 0.00 42 1015.1
20260503231845 25 53 1.6 3.2 0.00 0.00 0.00 41 1015.4
20260503231341 25 170 3.2 8.0 0.00 0.00 0.00 41 1015.3
20260503230838 25 119 1.6 3.2 0.00 0.00 0.00 40 1015.3
20260503230334 25 115 4.8 8.0 0.00 0.00 0.00 39 1015.4
20260503225827 25 80 3.2 8.0 0.00 0.00 0.00 39 1015.2
20260503225322 25 138 3.2 4.8 0.00 0.00 0.00 40 1015.2
20260503224819 25 101 3.2 4.8 0.00 0.00 0.00 40 1015.2
20260503224316 25 68 8.0 11.3 0.00 0.00 0.00 40 1015.3
20260503223814 25 110 4.8 4.8 0.00 0.00 0.00 40 1015.1
20260503223311 26 119 8.0 9.7 0.00 0.00 0.00 41 1015.2
20260503222807 26 50 3.2 3.2 0.00 0.00 0.00 40 1015.2
20260503222306 25 41 4.8 9.7 0.00 0.00 0.00 41 1015.3
20260503221803 25 303 0.0 1.6 0.00 0.00 0.00 41 1015.3
20260503221301 25 305 3.2 4.8 0.00 0.00 0.00 41 1015.3
20260503220757 26 330 4.8 8.0 0.00 0.00 0.00 40 1015.5
20260503220254 26 83 3.2 8.0 0.00 0.00 0.00 39 1015.3
20260503215751 26 83 4.8 12.9 0.00 0.00 0.00 41 1015.5
20260503215248 26 38 3.2 4.8 0.00 0.00 0.00 39 1015.5
20260503214746 26 114 3.2 8.0 0.00 0.00 0.00 40 1015.4
20260503214243 26 84 9.7 11.3 0.00 0.00 0.00 40 1015.3
20260503213741 26 91 4.8 8.0 0.00 0.00 0.00 40 1015.4
20260503213238 26 158 4.8 9.7 0.00 0.00 0.00 40 1015.2
20260503212734 26 88 3.2 8.0 0.00 0.00 0.00 41 1015.3
20260503212232 26 107 4.8 9.7 0.00 0.00 0.00 42 1015.4
20260503211730 26 61 1.6 11.3 0.00 0.00 0.00 40 1015.5
20260503211226 26 111 0.0 3.2 0.00 0.00 0.00 40 1015.2
20260503210721 25 111 6.4 11.3 0.00 0.00 0.00 42 1015.4
20260503210219 26 72 8.0 11.3 0.00 0.00 0.00 42 1015.3
20260503205714 26 87 1.6 4.8 0.00 0.00 0.00 41 1015.3
20260503205210 26 41 8.0 9.7 0.00 0.00 0.00 43 1015.3
20260503204707 26 108 0.0 3.2 0.00 0.00 0.00 43 1015.2
20260503204205 26 123 8.0 8.0 0.00 0.00 0.00 42 1015.4
20260503203702 26 342 9.7 11.3 0.00 0.00 0.00 40 1015.6
20260503203200 26 310 3.2 8.0 0.00 0.00 0.00 41 1015.7
20260503202656 26 33 4.8 8.0 0.00 0.00 0.00 42 1015.7
20260503202154 26 335 9.7 11.3 0.00 0.00 0.00 42 1015.7
20260503201652 26 15 3.2 9.7 0.00 0.00 0.00 44 1015.9
20260503201149 26 99 8.0 12.9 0.00 0.00 0.00 42 1015.8
20260503200645 26 330 4.8 9.7 0.00 0.00 0.00 39 1015.9
20260503200141 26 314 6.4 9.7 0.00 0.00 0.00 39 1016.1
20260503195639 25 44 3.2 4.8 0.00 0.00 0.00 44 1016.2
20260503195136 25 92 1.6 4.8 0.00 0.00 0.00 46 1016.1
20260503194633 25 117 3.2 4.8 0.00 0.00 0.00 47 1016.3
20260503194128 25 57 8.0 16.1 0.00 0.00 0.00 46 1016.2
20260503193625 26 48 4.8 8.0 0.00 0.00 0.00 42 1016.5
20260503193121 26 51 3.2 4.8 0.00 0.00 0.00 39 1016.3
20260503192616 26 20 1.6 4.8 0.00 0.00 0.00 39 1016.5
20260503192112 25 238 8.0 12.9 0.00 0.00 0.00 40 1016.6
20260503191604 26 333 6.4 12.9 0.00 0.00 0.00 40 1016.6
20260503191100 26 69 3.2 11.3 0.00 0.00 0.00 41 1016.8
20260503190557 26 37 4.8 11.3 0.00 0.00 0.00 38 1016.7
20260503190054 25 67 3.2 8.0 0.00 0.00 0.00 39 1016.8
20260503185551 26 330 8.0 11.3 0.00 0.00 0.00 38 1017.1
20260503185050 25 21 6.4 11.3 0.00 0.00 0.00 40 1017.1
20260503184546 25 22 3.2 11.3 0.00 0.00 0.00 40 1017.1
20260503184043 25 3 6.4 12.9 0.00 0.00 0.00 41 1017.2
20260503183540 26 344 8.0 12.9 0.00 0.00 0.00 44 1017.2
20260503183037 25 239 6.4 12.9 0.00 0.00 0.00 43 1017.3
20260503182536 25 25 9.7 12.9 0.00 0.00 0.00 44 1017.4
20260503182033 25 358 6.4 12.9 0.00 0.00 0.00 44 1017.6
20260503181530 25 92 4.8 8.0 0.00 0.00 0.00 42 1017.3
20260503181026 25 347 6.4 12.9 0.00 0.00 0.00 42 1017.7
20260503180524 25 6 8.0 12.9 0.00 0.00 0.00 44 1017.7
20260503180021 25 54 3.2 9.7 0.00 0.00 0.00 46 1017.8
20260503175518 25 74 3.2 9.7 0.00 0.00 0.00 46 1017.7
20260503175015 25 55 6.4 8.0 0.00 0.00 0.00 43 1017.8
20260503174513 24 342 8.0 11.3 0.00 0.00 0.00 45 1017.7
20260503174009 24 298 6.4 9.7 0.00 0.00 0.00 46 1017.6
20260503173504 23 291 3.2 8.0 0.00 0.00 0.00 44 1017.9
20260503173000 24 35 4.8 8.0 0.00 0.00 0.00 45 1018.0
20260503172458 24 65 6.4 11.3 0.00 0.00 0.00 45 1018.0
20260503171955 23 249 4.8 11.3 0.00 0.00 0.00 48 1018.0
20260503171451 23 311 3.2 8.0 0.00 0.00 0.00 48 1018.1
20260503170949 23 65 8.0 11.3 0.00 0.00 0.00 46 1018.0
20260503170445 23 333 1.6 11.3 0.00 0.00 0.00 47 1018.3
20260503150837 21 82 8.0 11.3 0.00 0.00 0.00 69 1018.6
20260503150333 20 46 8.0 12.9 0.00 0.00 0.00 73 1018.6
20260503140257 18 50 3.2 14.5 0.00 0.00 0.00 81 1018.5
20260503131227 16 41 1.6 4.8 0.00 0.00 0.00 92 1018.3
20260503130725 16 8 6.4 12.9 0.00 0.00 0.00 93 1018.2
20260503130222 15 3 4.8 8.0 0.00 0.00 0.00 94 1018.1
20260503120148 13 35 3.2 4.8 0.00 0.00 0.00 99 1017.7
20260503110615 13 34 0.0 3.2 0.00 0.00 0.00 99 1017.3
20260503110113 13 37 0.0 3.2 0.00 0.00 0.00 99 1017.0